This is the latest recevied weather packets stored in our database for station/object KF4ERV-4. If no packets are shown the sender has not sent any weather packets the latest 10 day(s).
| Time | Temp. | Humidity | Pressure | Rain* | Wind** | Luminosity | Snow |
|---|---|---|---|---|---|---|---|
| 1777343752 | 17.22° C | 97% | 1010.9 hPa | 1.52 mm | - | - | - |
| 1777343678 | 17.22° C | 97% | 1010.9 hPa | 1.52 mm | - | - | - |
| 1777343461 | 17.22° C | 95% | 1011 hPa | 1.52 mm | - | - | - |
| 1777343381 | 17.22° C | 95% | 1011 hPa | 1.52 mm | - | - | - |
| 1777343270 | 17.22° C | 94% | 1011 hPa | 4.83 mm | - | - | - |
| 1777343173 | 17.22° C | 95% | 1011 hPa | 2.03 mm | - | - | - |
| 1777343073 | 17.22° C | 95% | 1011 hPa | 2.03 mm | - | - | - |
| 1777342882 | 17.22° C | 94% | 1011 hPa | 3.05 mm | - | - | - |
| 1777342776 | 17.22° C | 94% | 1011 hPa | 3.05 mm | - | - | - |
| 1777342771 | 17.22° C | 93% | 1011.4 hPa | 10.16 mm | - | - | - |
| 1777342591 | 17.22° C | 94% | 1011 hPa | 4.83 mm | - | - | - |
| 1777342479 | 17.22° C | 94% | 1011 hPa | 4.83 mm | - | - | - |
| 1777342301 | 17.22° C | 93% | 1011 hPa | 6.1 mm | - | - | - |
| 1777342171 | 17.22° C | 93% | 1011 hPa | 6.1 mm | - | - | - |
| 1777342011 | 17.22° C | 93% | 1011.4 hPa | 10.16 mm | - | - | - |
| 1777341874 | 17.22° C | 93% | 1011.4 hPa | 10.16 mm | - | - | - |
| 1777341721 | 17.22° C | 92% | 1011.1 hPa | 14.48 mm | - | - | - |
| 1777341578 | 17.22° C | 92% | 1011.1 hPa | 14.48 mm | - | - | - |
| 1777341432 | 17.22° C | 92% | 1011.5 hPa | 21.34 mm | - | - | - |
| 1777341281 | 17.22° C | 92% | 1011.5 hPa | 21.34 mm | - | - | - |
| 1777341141 | 17.22° C | 92% | 1011.9 hPa | 26.92 mm | - | - | - |
| 1777340972 | 17.22° C | 92% | 1011.9 hPa | 26.92 mm | - | - | - |
| 1777340851 | 17.22° C | 91% | 1011.9 hPa | 30.99 mm | - | - | - |
| 1777340675 | 17.22° C | 91% | 1011.9 hPa | 30.99 mm | - | - | - |
| 1777340561 | 17.22° C | 91% | 1011.2 hPa | 35.56 mm | - | - | - |
* Rain latest hour (hover to see other rain measurements)
** Current wind speed in m/s (hover to see current wind gust speed)